Dayton Wright, OH

7:08 AM EDT on March 28, 2017 (GMT -0400)
Dayton-Wright Brothers

Weather History for KMGY - May, 2013

Change the Weather History Date:

Tuesday, May 21, 2013

  Actual Average (KFFO) Record (KFFO)
Temperature  
Mean Temperature 76 °F -  
Max Temperature 84 °F 70 °F 87 °F (2004)
Min Temperature 69 °F 49 °F 37 °F (2002)
Cooling Degree Days 10    
Growing Degree Days 26 (Base 50)    
Moisture  
Dew Point 62 °F    
Average Humidity 64    
Maximum Humidity 84    
Minimum Humidity 45    
Precipitation  
Precipitation 0.00 in - - ()
Sea Level Pressure  
Sea Level Pressure 29.85 in    
Wind  
Wind Speed 10 mph (SSW)    
Max Wind Speed 18 mph    
Max Gust Speed 24 mph    
Visibility 10 miles    
Events      
Averages and records for this station are not official NWS values.
T = Trace of Precipitation, MM = Missing Value Source: NWS Daily Summary

Daily Weather History Graph

Daily Weather History Graph

Search for Another Location

Airport or City:

Trip Planner

Search our weather history database for the weather conditions in past years. The results will help you decide how hot, cold, wet, or windy it might be!

Date:

Astronomy

May. 21, 2013 Rise Set
Actual Time 6:17 AM EDT 8:49 PM EDT
Civil Twilight 5:46 AM EDT 9:21 PM EDT
Nautical Twilight 5:08 AM EDT 9:59 PM EDT
Astronomical Twilight 4:25 AM EDT 10:42 PM EDT
Moon 5:03 PM EDT (5/21) 3:44 AM EDT (5/21)
Length of Visible Light 15h 34m
Length of Day
14h 32m
Waxing Gibbous, 84% of the Moon is Illuminated
May 21
Waxing Gibbous
May 25
Full
May 31
Last Quarter
Jun 8
New
Jun 16
First Quarter

Hourly Weather History & Observations

Time (EDT) Temp. Heat Index Dew Point Humidity Pressure Visibility Wind Dir Wind Speed Gust Speed Precip Events Conditions
12:53 AM 72.0 °F - 66.0 °F 81% 29.88 in 10.0 mi South 8.1 mph - N/A   Clear
1:53 AM 72.0 °F - 66.9 °F 84% 29.88 in 10.0 mi South 9.2 mph - N/A   Clear
2:53 AM 72.0 °F - 66.9 °F 84% 29.88 in 10.0 mi SSW 6.9 mph - N/A   Partly Cloudy
3:53 AM 72.0 °F - 64.9 °F 78% 29.87 in 10.0 mi SW 8.1 mph - N/A   Clear
4:53 AM 73.0 °F - 64.9 °F 76% 29.86 in 10.0 mi SW 8.1 mph - N/A   Clear
5:53 AM 72.0 °F - 63.0 °F 73% 29.89 in 10.0 mi WSW 12.7 mph 21.9 mph N/A   Mostly Cloudy
6:53 AM 69.1 °F - 59.0 °F 70% 29.88 in 10.0 mi WSW 5.8 mph - N/A   Clear
7:53 AM 69.1 °F - 60.1 °F 73% 29.89 in 10.0 mi South 8.1 mph - N/A   Clear
8:53 AM 73.0 °F - 60.1 °F 64% 29.92 in 10.0 mi SW 8.1 mph 16.1 mph N/A   Clear
9:53 AM 73.9 °F - 60.1 °F 62% 29.93 in 10.0 mi SSW 12.7 mph 19.6 mph N/A   Partly Cloudy
10:53 AM 73.9 °F - 61.0 °F 64% 29.86 in 10.0 mi SSE 11.5 mph - N/A   Clear
11:53 AM 79.0 °F - 62.1 °F 56% 29.86 in 10.0 mi South 12.7 mph - N/A   Clear
12:53 PM 82.0 °F 82.4 °F 60.1 °F 47% 29.86 in 10.0 mi SSW 13.8 mph 23.0 mph N/A   Clear
1:53 PM 82.0 °F 82.1 °F 59.0 °F 45% 29.84 in 10.0 mi SSW 12.7 mph 20.7 mph N/A   Clear
2:53 PM 82.9 °F 84.4 °F 64.0 °F 53% 29.84 in 10.0 mi South 13.8 mph - N/A   Clear
3:53 PM 82.9 °F 83.3 °F 61.0 °F 47% 29.84 in 10.0 mi SSW 18.4 mph 24.2 mph N/A   Partly Cloudy
4:53 PM 82.0 °F 82.4 °F 60.1 °F 47% 29.83 in 10.0 mi SW 16.1 mph 21.9 mph N/A   Partly Cloudy
5:53 PM 82.0 °F 82.4 °F 60.1 °F 47% 29.82 in 10.0 mi SW 12.7 mph 20.7 mph N/A   Clear
6:53 PM 81.0 °F 81.6 °F 60.1 °F 49% 29.80 in 10.0 mi SW 11.5 mph 23.0 mph N/A   Clear
7:53 PM 79.0 °F - 62.1 °F 56% 29.80 in 10.0 mi SSW 9.2 mph - N/A   Partly Cloudy
8:53 PM 75.9 °F - 61.0 °F 60% 29.79 in 10.0 mi SSW 10.4 mph - N/A   Clear
9:53 PM 73.0 °F - 62.1 °F 68% 29.81 in 10.0 mi SSW 8.1 mph - N/A   Clear
10:53 PM 72.0 °F - 61.0 °F 68% 29.83 in 10.0 mi South 12.7 mph - N/A   Clear
11:53 PM 69.1 °F - 62.1 °F 78% 29.83 in 10.0 mi South 9.2 mph - N/A   Clear